Regional Weather Roundup
Issued by NWS Jackson, KY

Home | Current Version | Previous Version | Text Only | Print | Product List | Glossary On
Versions: 1 2 3 4 5 6 7 8 9 10 11 12 13 14 15 16 17 18 19 20 21 22 23 24 25 26 27 28 29 30 31 32 33 34 35 36 37 38 39 40 41 42 43 44 45 46 47 48 49 50
000
ASUS43 KJKL 240510
RWRJKL

EAST KENTUCKY HOURLY WEATHER ROUNDUP
NATIONAL WEATHER SERVICE JACKSON KY
100 AM EDT FRI MAR 24 2017

NOTE: "FAIR" INDICATES FEW OR NO CLOUDS BELOW 12,000 FEET WITH
NO SIGNIFICANT WEATHER AND/OR OBSTRUCTIONS TO VISIBILITY.

* THESE REPORTS ARE NOT UNDER NWS QUALITY CONTROL AND MAY NOT
  REPORT WEATHER SUCH AS PRECIPITATION AND FOG.

KYZ079-080-083-085-087-088-110-112-115-119-120-240600
...EASTERN KENTUCKY...

CITY           SKY/WX    TMP DP  RH WIND       PRES   REMARKS
JACKSON        CLOUDY    58  33  39 SW3       30.28R
LONDON         MOCLDY    55  36  48 S5        30.29R
SOMERSET*      MOCLDY    55  36  47 S12       30.29S
MONTICELLO*    CLEAR     58  39  49 S8        30.29R
WILLIAMSBURG*  CLEAR     54  37  54 S8        30.30S
MIDDLESBORO*   CLEAR     57  38  48 S6        30.34R
HARLAN APT*    PTCLDY    54  28  37 CALM      30.33R
PIKE CO APT*     N/A     56  31  37 S8        30.29S
BIG SANDY APT* MOCLDY    59  32  36 S10       30.28S
MOREHEAD APT*  CLOUDY    57  28  33 S6        30.26F
ASHLAND*       CLOUDY    46  34  61 SE3       30.23F
$$

KYZ035-036-041-042-044-050-067-078-099-240600
...CENTRAL KENTUCKY...

CITY           SKY/WX    TMP DP  RH WIND       PRES   REMARKS
MT STERLING*   CLEAR     54  36  50 S7        30.26S
FLEMING/MASON* CLOUDY    54  33  45 S8        30.23F
DANVILLE*      CLOUDY    55  37  50 S8        30.25S
LEXINGTON      CLEAR     54  36  50 S9        30.22F
FRANKFORT      PTCLDY    54  35  48 S8        30.20F
LOUISVILLE     PTCLDY    60  38  43 S13       30.18F
LEBANON*       MOCLDY    57  39  51 S15G21    30.22F
GLASGOW*       CLEAR     56  40  54 S8        30.23S
BOWLING GREEN  CLEAR     58  42  55 SE8       30.21S
$$

KYZ091>093-OHZ055-061-077-WVZ005-015-034-035-042-240600
...SOUTHERN OHIO/WEST VIRGINIA...

CITY           SKY/WX    TMP DP  RH WIND       PRES   REMARKS
COVINGTON      CLOUDY    51  33  50 S7        30.19F
COLUMBUS       MOCLDY    51  21  30 SE7       30.21F
DAYTON         CLOUDY    53  30  41 S8        30.19S
WILMINGTON     CLOUDY    48  32  53 S6        30.19F
HUNTINGTON     CLOUDY    49  32  52 SW3       30.25S
CHARLESTON     CLEAR     53  24  32 SE5       30.27S
PINEVILLE*     CLOUDY    40  29  65 MISG      30.39R
BECKLEY        CLEAR     43  20  39 SE12G21   30.34R
BLUEFIELD      CLEAR     43  21  41 S13G18    30.36R
LOGAN CO APT*    N/A     54  23  30 VRB7G16   30.29S
$$

VAZ002-007-008-TNZ017-027-036-066-071-240600
...SOUTHWEST VIRGINIA/EAST TENNESSEE...

CITY           SKY/WX    TMP DP  RH WIND       PRES   REMARKS
WISE*          CLEAR     50  25  37 CALM      30.35R
JONESVILLE*    CLOUDY    50  32  50 S5        30.37R
ABINGDON*      CLEAR     46  28  49 E3        30.37S
BRISTOL        MOCLDY    51  26  37 VRB6      30.37S
MORRISTOWN*    MOCLDY    50  32  50 CALM      30.34R
SEVIERVILLE*   CLEAR     46  37  71 CALM      30.33S
KNOXVILLE      PTCLDY    54  37  52 SW9       30.33F
LAFOLLETTE*    CLEAR     59  39  47 S12       30.36R
OAK RIDGE      CLEAR     56  35  45 W3        30.36S
CROSSVILLE     CLEAR     53  35  50 S12G21    30.33S
NASHVILLE      CLEAR     62  43  49 S14G22    30.23R
$$

...KEY TO REMARKS...
VSB - VISIBILITY IN MILES
WCI - WIND CHILL INDEX
HX  - HEAT INDEX

$$



USA.gov is the U.S. government's official web portal to all federal, state and local government web resources and services.